Theta_e
298 299 300 301 301 301 302 302 303 304 305 305 305 305 302 301 297 295 296 298 298 299 302 301 304 303 304 304 302 303 303 302 302 303 303 303 304 303 304 308 309 310 310 311 311 309 309 310 309 309 309 309 309 309 308 308 308 309 310 310 311 312 312 312 313 312 311 311 311 309 308 307 307 305
296 296 297 297 296 297 297 298 300 300 301 302 303 304 305 304 299 297 293 294 298 300 303 301 301 303 301 300 303 302 302 301 301 302 303 303 304 303 304 306 307 307 308 308 308 308 309 308 308 307 306 307 307 309 308 308 308 309 310 311 312 312 313 313 312 312 311 310 309 308 307 306 305 304
294 293 293 293 293 294 295 296 296 296 296 300 301 302 302 302 302 300 298 293 297 300 297 298 300 300 301 302 302 302 301 300 301 301 302 302 300 298 299 299 301 303 304 306 307 308 309 308 308 307 306 306 307 307 307 307 308 308 309 310 311 311 312 312 312 310 309 309 308 307 307 306 305 303
291 290 291 291 291 291 289 292 292 293 293 295 297 299 300 300 299 297 294 292 292 297 297 298 299 299 299 299 298 299 300 301 298 300 300 300 297 298 298 298 299 301 303 306 306 306 307 306 306 306 305 306 306 306 306 306 307 307 308 309 310 310 311 310 309 309 307 306 306 306 305 303 301 301
287 287 289 291 291 289 289 290 291 291 292 292 294 297 298 297 298 298 296 293 292 294 296 296 295 296 297 296 298 297 298 298 299 298 299 299 299 300 299 299 297 299 301 302 302 304 305 304 303 304 303 303 303 303 304 303 304 305 306 307 310 309 308 308 308 307 305 305 306 304 302 301 301 300
289 287 288 290 290 288 289 289 290 290 290 289 291 293 294 294 295 297 294 292 291 290 294 294 296 296 297 295 297 296 296 297 297 297 298 299 298 298 299 300 300 299 299 300 301 303 303 302 301 302 301 301 300 301 303 302 303 304 305 307 307 307 305 306 305 305 304 304 303 302 301 300 300 299
287 287 287 288 288 288 287 287 288 288 288 288 289 290 292 292 292 294 295 293 289 290 290 293 293 294 294 294 294 295 296 296 297 296 296 297 298 299 298 298 297 298 299 301 301 301 300 300 300 300 300 300 300 300 301 300 301 303 306 306 305 303 303 304 303 303 303 303 301 300 299 299 299 298
286 287 287 287 287 287 287 287 287 287 286 287 287 288 289 290 291 292 292 293 292 290 289 291 292 293 292 292 294 295 295 295 294 295 295 295 295 295 295 294 294 294 298 299 298 299 299 299 299 299 299 299 299 299 299 300 302 304 303 303 302 301 301 301 300 301 301 300 300 299 298 298 297 296
286 286 286 287 287 287 286 287 286 286 286 286 286 286 287 288 289 290 290 290 291 290 289 290 292 292 292 293 293 293 292 293 293 293 293 294 294 293 293 291 291 294 297 297 297 296 297 297 297 297 298 298 298 298 298 302 303 300 300 299 299 299 298 299 299 298 298 297 297 297 298 297 296 296
285 286 286 287 286 286 286 286 287 286 286 286 286 286 286 287 288 289 289 290 290 289 289 289 289 291 290 290 291 292 291 291 291 291 292 293 292 290 290 290 290 290 290 290 291 292 294 295 296 296 296 297 297 297 299 299 299 298 297 297 297 298 298 297 297 296 296 296 295 296 296 295 295 294
285 285 286 286 286 286 286 286 287 287 286 286 286 286 286 287 288 288 288 289 288 288 288 288 289 289 290 290 289 291 292 291 291 289 289 289 291 290 289 290 291 289 288 290 292 291 291 291 291 292 293 294 295 295 299 298 297 295 295 296 297 297 296 296 295 295 295 294 294 293 293 293 294 293
285 285 285 285 286 286 286 286 287 286 286 287 286 287 286 286 287 287 288 288 288 287 287 287 287 288 288 289 290 290 290 289 289 290 289 287 289 290 291 289 288 289 287 287 287 289 290 290 291 292 292 293 294 294 297 296 293 292 294 295 295 295 295 295 294 294 293 293 292 292 291 291 291 292
284 284 284 284 285 285 286 287 288 288 289 288 287 287 287 286 286 287 287 287 287 287 287 286 287 287 287 287 288 287 287 287 287 289 289 288 289 290 289 290 289 287 287 287 286 286 286 286 286 287 287 289 291 294 294 292 292 293 295 295 294 294 294 293 293 292 291 291 290 290 290 290 290 289
283 283 283 284 285 286 286 286 287 289 289 289 289 288 287 287 287 287 287 287 287 286 286 286 286 285 286 286 287 287 287 288 288 288 288 287 288 289 289 290 290 287 286 285 285 286 286 286 286 287 287 288 290 290 290 289 291 293 294 294 293 293 293 292 292 291 290 290 289 289 288 288 287 287
283 283 283 283 284 284 285 285 287 288 289 289 289 290 290 289 288 287 286 287 287 286 286 286 286 285 285 286 287 287 288 288 287 287 288 288 288 287 286 285 288 286 285 285 285 285 286 286 285 286 287 288 287 288 288 292 293 293 293 293 292 292 291 291 290 289 289 288 288 287 287 286 286 286
282 282 283 283 284 284 284 284 285 286 287 288 289 289 289 289 290 290 288 287 286 286 286 285 286 286 285 286 287 287 287 287 287 288 288 287 287 286 286 286 286 287 285 284 284 284 285 285 285 283 284 285 286 286 290 293 293 293 292 292 291 291 290 289 289 288 288 287 287 286 286 285 285 284
282 282 282 282 283 284 284 284 284 284 284 286 287 288 288 288 289 289 290 291 289 288 287 286 286 286 287 286 286 287 287 288 286 287 287 287 287 286 286 286 287 287 285 285 284 282 283 283 283 281 283 285 285 288 291 293 293 292 291 291 290 290 289 288 288 287 287 286 286 285 284 284 283 283
281 282 282 282 282 283 283 283 283 283 284 284 285 285 285 285 286 288 288 289 289 289 288 287 286 287 288 286 287 288 288 287 286 286 286 286 286 286 286 287 287 287 285 285 284 280 280 281 281 280 282 285 286 287 290 292 292 292 291 290 289 289 288 287 287 286 286 285 285 284 284 283 283 282
281 282 282 282 282 282 283 283 284 284 284 284 285 285 285 285 285 286 286 287 287 287 288 287 287 288 288 288 288 288 289 288 288 288 287 287 287 287 287 287 287 286 286 286 284 280 279 281 279 279 280 284 285 286 290 291 291 290 290 289 288 288 287 287 286 286 285 285 284 284 283 282 282 282
282 282 282 281 282 282 282 284 286 287 286 285 285 285 285 285 285 285 287 289 289 288 288 288 288 288 288 289 288 288 288 288 288 288 288 288 287 286 284 283 286 284 285 286 284 278 276 279 278 278 280 283 284 285 286 289 290 290 289 288 288 287 287 286 286 285 285 284 283 283 282 282 281 281
282 282 282 282 282 282 282 285 287 288 287 285 285 285 284 285 285 285 286 288 289 289 289 289 290 290 290 290 290 291 291 290 289 288 286 285 286 284 283 283 284 283 284 284 284 279 276 278 278 277 277 280 282 283 285 286 289 289 288 288 287 287 286 285 285 284 284 283 282 282 281 281 280 279
281 282 283 283 282 282 282 286 287 288 287 285 284 284 283 283 283 284 286 286 287 288 288 288 288 289 289 289 289 290 290 290 289 286 283 285 285 283 283 282 283 282 282 283 281 278 276 277 277 275 275 275 274 279 283 284 286 287 287 287 286 286 285 285 284 284 283 282 282 281 281 280 278 275
281 282 282 283 284 284 285 287 288 288 286 284 284 283 283 282 282 284 285 285 285 285 285 285 286 286 287 287 286 286 288 289 288 287 286 286 285 283 283 283 282 278 280 280 281 277 275 276 277 277 274 270 273 274 277 279 281 281 282 282 282 284 284 284 283 283 282 281 281 280 279 278 275 273
280 281 282 283 285 286 286 285 286 286 286 284 283 283 282 282 282 285 285 285 285 285 285 285 285 285 286 286 286 286 286 286 286 287 286 286 285 284 283 283 282 280 279 279 282 277 276 277 276 275 275 273 270 271 274 274 276 278 279 279 279 282 282 282 281 281 281 280 280 279 278 276 274 271
279 280 280 281 283 284 284 285 285 286 286 286 284 284 283 283 285 286 284 284 285 284 285 285 285 285 285 285 285 285 286 286 286 286 286 286 286 285 283 283 282 281 278 280 283 278 275 276 274 273 272 271 271 269 270 272 273 274 276 277 276 277 276 276 277 277 279 279 279 278 277 276 275 272
279 279 280 280 282 284 284 285 285 286 286 286 284 284 286 286 286 285 285 285 285 284 284 284 284 283 283 283 284 284 284 284 282 280 280 281 282 284 285 284 283 278 276 281 283 278 276 274 274 272 271 271 269 270 268 268 270 271 272 273 273 273 273 273 274 273 273 273 274 275 275 276 275 274
279 280 280 281 282 284 284 285 285 286 286 285 284 285 286 286 286 286 284 284 284 284 283 283 282 283 283 282 283 283 282 278 275 274 274 275 276 277 278 279 283 283 280 280 281 279 278 275 275 273 272 271 269 269 269 267 267 270 270 270 271 271 271 271 270 270 270 270 272 276 276 276 276 275
280 280 280 281 283 284 284 284 285 285 284 283 285 286 286 286 286 284 284 284 283 283 283 282 282 282 282 282 282 281 274 272 272 271 272 272 273 273 274 275 278 280 280 280 279 278 278 275 274 274 273 271 269 268 266 268 268 269 268 268 269 269 269 269 269 269 269 269 268 268 267 267 268 268
280 281 283 283 283 283 283 284 284 283 283 284 285 285 285 285 284 284 284 283 283 282 281 282 282 282 282 278 274 272 271 272 272 271 271 272 272 272 273 272 272 274 277 278 278 278 277 276 274 274 273 273 271 270 268 267 267 267 267 266 265 267 267 268 268 267 267 267 267 267 266 266 267 267
281 282 282 282 282 282 281 280 280 281 282 284 284 285 285 284 284 284 283 283 282 281 282 281 281 282 278 273 272 272 272 271 271 271 272 272 272 273 273 271 270 270 271 274 277 277 276 275 274 274 273 272 272 270 269 267 266 267 267 266 265 266 266 267 267 267 266 266 266 265 266 266 266 266
279 279 279 279 281 281 282 282 282 283 283 283 283 283 284 284 284 284 283 283 282 282 282 281 281 279 272 271 271 271 271 271 271 272 272 271 271 271 271 270 268 268 269 270 272 275 275 275 275 274 272 271 270 270 269 269 266 265 266 266 266 263 264 266 266 266 265 265 265 265 265 266 266 267
279 278 279 279 279 279 280 280 281 281 282 282 282 282 283 283 284 284 284 284 283 283 282 280 276 272 270 270 271 271 271 271 271 272 271 271 270 270 270 268 266 267 267 268 269 269 270 272 273 273 272 271 269 268 269 268 266 266 265 265 265 264 265 265 264 264 265 264 263 262 263 263 263 264
277 277 277 277 278 278 278 278 279 280 280 280 281 281 282 283 283 283 283 282 281 281 279 277 275 272 271 271 271 271 270 270 270 271 271 271 270 270 269 267 267 267 265 265 266 267 267 267 268 269 268 269 270 269 268 265 266 266 264 264 264 263 264 264 264 263 264 263 261 261 260 261 263 264
275 275 275 276 276 276 277 278 278 278 278 279 279 280 282 282 282 282 282 281 281 279 276 274 272 272 271 270 270 270 270 270 270 272 272 270 270 269 268 267 266 266 266 265 266 266 267 267 268 268 268 267 268 267 267 266 264 264 264 263 263 262 263 263 263 263 263 261 261 259 258 259 261 262
273 273 273 274 275 276 277 276 277 278 278 278 279 279 280 282 281 281 280 280 278 276 274 273 272 271 270 270 270 269 270 269 269 269 270 270 269 268 267 266 265 265 265 265 265 266 267 267 267 266 266 266 265 266 270 267 264 263 263 262 262 262 261 262 262 262 262 260 260 258 257 258 260 261
272 273 273 274 275 276 275 276 277 278 277 278 278 279 279 280 280 280 278 278 276 274 273 272 271 270 270 270 269 270 269 269 269 268 268 268 267 267 266 266 265 265 265 265 265 267 267 267 268 266 265 264 263 261 261 268 268 264 262 261 261 261 261 261 261 261 260 258 258 258 258 256 257 260
271 272 273 274 275 275 274 276 276 276 277 277 278 278 278 278 278 278 277 276 274 273 273 272 270 270 270 269 269 269 269 269 268 268 267 267 266 266 265 265 265 265 264 265 266 266 267 267 268 267 265 264 263 261 260 260 266 267 263 261 260 261 260 259 259 258 259 258 257 258 256 256 255 258
271 272 273 274 273 274 274 274 273 274 275 276 277 277 277 277 276 276 275 274 273 273 272 271 270 270 269 269 269 268 268 268 268 267 266 266 265 265 265 264 264 264 263 264 265 265 266 267 267 267 267 264 261 259 259 259 259 262 267 263 261 260 260 259 258 257 255 256 256 257 257 255 257 258
271 271 270 270 271 270 269 270 271 273 274 275 275 275 275 275 275 274 274 274 273 272 271 270 269 269 269 269 269 269 268 267 267 266 266 266 266 265 264 264 263 264 264 264 264 264 265 264 264 264 265 265 263 263 262 260 259 260 265 267 262 260 258 259 257 254 256 254 255 255 255 257 261 265
268 268 268 268 267 267 267 269 270 272 273 273 273 274 273 273 273 273 273 273 272 271 270 270 270 269 269 269 269 269 268 267 267 267 266 266 265 265 264 264 264 264 263 263 262 261 260 260 260 261 262 261 262 262 262 262 261 262 263 266 267 263 259 258 256 256 254 254 254 253 251 252 251 253
266 265 265 265 265 266 266 267 269 271 271 271 272 273 272 272 272 272 273 273 271 271 270 269 269 269 269 269 269 268 267 267 267 266 266 265 265 264 264 264 263 264 263 261 260 259 259 259 261 264 263 263 264 265 263 261 259 260 261 262 267 267 266 264 258 256 253 254 252 249 249 250 251 249
264 263 263 263 263 264 265 266 268 269 269 269 270 271 271 272 271 273 273 272 271 270 270 269 269 269 269 269 269 268 267 266 266 265 265 265 264 264 264 264 263 263 263 261 259 258 258 260 261 262 263 263 261 261 259 259 258 259 260 259 261 267 268 267 266 264 259 256 251 249 249 250 248 247
262 262 262 262 263 263 264 265 266 266 266 267 268 270 270 270 271 271 270 270 270 270 269 269 269 269 269 269 268 268 267 266 266 265 265 264 264 263 263 263 263 261 259 257 258 258 259 260 260 260 259 259 257 258 259 259 259 259 259 259 259 259 260 264 267 267 266 266 265 258 254 252 249 251
261 261 261 262 262 262 263 264 265 265 265 266 267 268 269 269 270 270 270 269 269 269 269 269 269 269 269 268 268 267 267 266 266 265 264 264 264 264 263 261 259 258 258 258 258 259 259 259 258 259 259 256 256 259 258 258 258 258 258 255 254 255 255 253 254 259 262 264 265 266 267 267 266 266
261 261 261 261 261 262 263 263 263 263 263 264 265 265 267 268 269 269 269 269 268 269 269 269 268 269 269 268 267 266 266 267 266 265 264 264 264 263 261 260 259 259 258 259 258 258 258 258 258 258 257 256 255 257 258 258 257 256 253 253 252 250 249 251 250 250 250 250 261 266 266 267 267 268
Wind_Speed
4 4 4 4 5 4 5 5 5 6 6 6 6 6 8 9 13 14 15 20 15 11 2 6 7 5 7 7 4 6 6 8 10 8 8 9 10 13 18 19 22 23 27 26 20 18 19 21 23 20 19 20 21 21 21 22 25 26 27 28 29 30 28 25 20 19 22 23 26 26 25 26 28 26
4 5 5 4 4 5 5 5 5 5 5 6 6 7 6 7 11 12 15 20 16 12 13 2 4 6 5 4 9 7 7 11 12 9 10 11 11 16 18 21 22 22 20 17 18 20 23 26 24 23 22 21 21 22 23 26 27 26 27 28 29 27 27 24 17 26 26 28 29 28 26 27 27 26
5 5 6 6 5 5 6 6 6 5 4 5 6 6 6 6 9 11 10 15 19 11 12 15 8 8 14 11 7 9 7 8 11 9 9 10 13 15 12 15 14 13 16 19 21 25 26 23 21 21 21 20 22 24 25 27 24 26 26 28 27 28 28 25 22 26 29 29 30 29 29 28 26 26
4 5 6 6 5 5 4 5 5 5 5 5 5 5 6 6 7 8 11 14 21 18 13 15 16 8 10 14 13 11 11 10 15 11 11 13 16 12 11 14 16 14 20 24 24 26 23 22 23 25 21 22 25 27 26 27 25 25 28 28 28 28 28 18 26 28 28 28 29 30 30 29 28 26
4 4 5 7 6 5 5 6 5 5 6 5 5 6 6 7 6 8 10 14 19 19 14 9 13 14 11 15 12 11 13 12 10 11 11 11 12 12 11 11 14 17 20 23 25 27 25 22 21 21 20 20 22 24 24 24 25 26 27 29 30 27 18 22 21 25 26 27 28 28 27 28 26 25
5 5 6 7 7 5 5 6 6 6 6 5 5 6 6 7 7 6 9 12 13 19 16 11 5 10 7 15 13 12 13 16 14 14 12 10 10 11 11 11 12 18 20 22 24 27 23 20 21 19 18 20 20 23 24 25 26 26 27 26 19 23 24 25 24 24 26 28 27 27 26 24 23 23
6 6 6 8 7 5 5 6 7 6 6 5 6 7 7 8 8 8 9 11 13 16 17 16 14 13 10 11 15 14 12 13 13 16 14 13 11 11 11 11 11 16 20 26 27 22 21 20 21 20 18 20 22 23 24 27 27 27 20 15 20 23 24 24 25 25 25 26 27 25 25 25 25 25
6 7 7 8 7 6 7 8 7 7 6 7 7 7 7 8 10 8 8 10 12 12 16 16 13 10 12 14 10 10 11 14 13 12 14 13 13 12 10 11 11 11 20 22 24 21 20 21 21 19 19 20 22 22 25 30 29 18 21 21 21 19 19 24 22 24 25 27 26 25 24 25 25 24
6 7 7 9 8 7 8 10 8 8 8 8 7 8 8 8 8 8 8 9 10 12 14 16 14 14 13 12 13 9 12 14 12 11 13 13 14 14 10 8 9 15 23 22 22 21 20 18 20 20 21 21 21 22 26 18 16 21 22 24 22 23 22 22 20 21 24 24 25 25 25 24 24 23
6 7 9 8 8 8 9 11 10 9 10 9 9 9 9 9 8 9 9 9 10 11 13 14 16 14 15 14 12 10 8 12 15 15 15 14 11 10 10 8 9 8 9 9 11 14 17 21 22 21 22 20 21 21 18 14 14 15 19 19 21 22 23 21 22 23 22 23 24 25 24 23 23 22
7 7 8 9 8 9 9 10 11 11 10 10 10 10 9 9 9 9 9 9 10 11 12 13 13 15 14 12 16 12 11 12 11 13 14 15 12 7 8 12 9 7 8 11 17 15 14 15 14 15 18 19 20 22 18 19 17 16 16 17 19 22 26 27 26 25 25 25 24 24 23 22 22 21
8 8 8 9 9 10 10 10 11 10 11 10 11 10 7 8 10 10 10 10 10 10 11 11 12 9 12 11 11 11 10 11 10 8 9 13 14 14 11 9 10 6 5 8 9 10 12 14 16 18 17 20 19 21 15 14 16 16 17 19 23 26 26 26 26 26 25 25 24 23 22 21 21 21
8 8 8 8 9 10 14 17 16 15 14 11 12 13 9 8 9 11 11 10 10 9 10 13 11 12 13 12 12 12 11 11 12 11 11 13 13 13 13 13 8 7 9 8 7 8 7 6 8 6 7 8 12 10 13 11 16 19 21 25 27 26 27 26 26 26 25 25 24 23 22 21 20 20
7 8 8 10 14 16 17 17 18 19 19 18 15 14 12 12 11 11 12 12 10 10 12 12 13 14 14 13 12 13 12 12 11 12 12 13 13 12 13 13 9 6 7 7 9 9 5 5 7 6 7 7 6 7 7 8 11 17 25 26 26 26 26 26 26 26 25 25 24 23 22 20 20 19
11 10 9 9 11 12 12 12 16 17 18 18 19 21 20 17 14 13 14 14 12 12 12 13 13 13 15 15 13 13 13 11 12 12 12 12 12 11 13 14 9 4 7 7 7 9 3 4 7 5 6 5 4 6 8 17 21 24 26 26 27 27 26 26 25 25 25 24 23 22 22 20 19 18
10 11 12 10 8 7 8 10 10 13 16 17 18 19 20 20 21 20 16 15 13 12 13 14 14 14 15 15 13 13 12 13 13 12 10 11 12 13 13 12 13 4 7 6 7 8 1 3 4 4 3 3 6 7 16 24 25 26 27 27 27 26 26 26 25 25 24 24 23 22 21 20 19 18
10 10 11 12 12 9 10 9 9 11 12 15 18 19 20 21 21 23 23 21 18 15 16 15 15 12 13 14 14 13 14 13 16 14 13 12 12 12 13 13 12 6 6 5 6 7 2 2 4 5 3 3 7 12 20 24 26 27 27 27 26 26 26 26 26 25 24 23 22 21 20 19 18 18
10 10 11 12 14 13 11 7 7 9 11 12 13 12 12 12 14 17 20 20 22 20 17 16 16 15 14 17 16 17 15 17 16 15 15 14 13 13 14 15 13 7 8 8 6 3 1 1 3 4 2 4 7 8 17 25 26 26 27 26 26 26 26 26 25 25 24 23 22 21 20 19 18 17
10 11 10 11 13 13 13 10 10 11 11 13 14 14 15 14 13 13 12 11 11 12 12 14 16 17 16 17 17 16 16 16 16 14 16 17 16 16 17 15 12 8 7 8 6 8 3 2 4 2 1 3 5 6 17 23 25 26 26 27 26 26 25 25 25 24 23 22 21 21 19 18 18 17
9 9 9 10 12 13 14 15 18 16 13 13 15 17 16 16 15 14 13 16 15 15 13 13 15 15 16 20 18 18 17 14 14 13 13 13 13 14 14 15 11 9 6 10 9 3 4 2 6 3 2 2 7 7 8 21 24 26 26 26 26 25 25 25 24 23 23 22 21 20 19 18 17 16
10 10 9 9 11 13 14 19 22 22 21 14 15 16 17 16 17 17 15 16 19 20 21 24 27 31 32 32 33 34 35 24 20 15 15 17 14 13 13 14 11 9 5 7 7 6 6 5 5 6 4 4 4 6 8 11 22 26 26 26 26 25 24 24 23 23 22 21 20 19 18 17 15 15
10 12 17 14 11 12 14 21 24 28 21 15 15 16 17 19 18 17 15 14 14 18 23 24 25 25 25 28 31 32 34 31 22 15 16 17 13 15 14 14 12 6 6 7 8 7 6 7 6 8 2 8 6 5 6 9 14 22 22 26 24 24 23 23 23 21 21 20 18 18 17 16 14 8
12 12 12 15 15 14 17 27 27 28 23 16 16 16 18 18 18 15 15 15 17 17 18 16 13 13 15 15 15 17 25 25 23 18 17 15 14 13 14 13 10 4 4 5 10 9 6 9 6 10 7 5 3 5 6 7 7 8 9 12 14 22 22 23 21 20 20 18 18 16 15 14 11 6
13 13 13 14 17 25 28 30 32 31 30 22 17 16 16 17 20 14 16 18 18 20 18 17 15 17 15 14 14 13 14 15 15 15 13 13 13 11 14 12 9 9 4 7 10 9 6 7 9 2 2 12 7 2 6 7 7 7 8 9 9 18 20 20 18 21 18 17 17 15 14 13 10 5
13 14 14 15 23 30 32 31 31 31 31 29 20 16 16 16 21 24 20 21 24 19 18 16 15 15 13 13 12 12 11 10 10 10 12 12 11 10 11 11 10 9 3 10 15 12 9 9 7 4 6 6 8 9 4 7 7 6 6 7 8 7 7 8 7 9 14 16 15 14 13 13 13 8
12 13 14 14 22 31 31 30 32 33 31 33 22 18 27 32 35 24 20 18 17 16 15 15 14 13 11 11 12 11 10 10 9 8 7 8 9 10 11 13 12 6 5 11 19 11 12 8 10 10 8 12 4 8 9 5 4 5 7 7 6 7 6 8 8 7 6 5 6 8 10 13 12 12
13 14 14 16 23 31 32 32 33 33 35 29 19 33 35 31 33 28 17 17 16 14 14 14 14 13 12 12 12 11 11 7 4 5 4 5 5 5 6 6 9 9 8 13 11 11 13 10 9 13 13 12 15 7 9 8 4 5 8 6 6 6 4 5 7 7 6 6 5 12 12 12 12 11
13 13 14 18 32 33 33 34 34 33 32 24 32 32 34 34 30 20 17 14 13 14 13 13 12 12 12 12 12 10 5 3 3 3 4 4 4 4 4 6 4 5 10 11 10 8 10 12 9 5 15 17 16 15 9 5 6 7 9 6 5 4 5 6 7 6 6 5 5 5 5 5 5 5
14 21 31 32 31 32 33 35 33 27 26 30 31 32 31 29 17 14 13 14 13 10 11 10 11 11 11 7 6 4 2 3 2 2 2 1 2 3 6 8 9 9 6 7 7 7 9 12 12 10 7 8 12 9 11 10 9 8 8 9 5 3 4 5 6 6 5 5 5 5 4 4 4 4
30 29 29 32 30 27 25 21 17 16 18 25 29 27 25 15 13 12 12 11 10 11 11 11 11 11 9 7 4 3 3 3 2 2 1 0 2 2 4 9 9 10 10 7 6 7 9 9 11 11 10 6 8 12 11 13 7 7 7 7 6 6 4 6 5 5 6 6 5 5 4 4 4 3
14 20 21 21 26 23 29 28 25 21 21 16 13 12 12 13 13 13 11 12 12 13 11 11 11 9 6 3 2 3 3 2 2 2 2 1 2 3 4 8 7 8 9 10 9 7 7 8 8 11 13 9 7 7 8 9 12 9 7 7 8 8 6 6 5 6 5 6 5 5 4 4 3 3
14 15 18 20 14 13 13 12 10 10 10 11 12 11 12 13 12 14 17 16 12 10 9 9 8 7 3 3 3 2 2 2 2 3 2 1 3 2 3 8 7 7 8 9 10 11 10 8 7 6 6 11 13 8 6 7 9 10 8 6 5 5 6 7 7 6 6 6 6 4 3 4 4 3
14 11 13 13 12 11 13 14 12 12 12 14 13 14 11 12 11 11 10 11 9 9 8 10 10 8 4 4 2 1 1 2 2 3 3 2 2 4 5 8 5 7 12 10 8 9 9 11 11 11 10 10 8 10 13 8 5 6 9 7 6 6 5 5 6 7 6 6 4 3 3 3 3 2
14 10 12 9 12 11 10 10 13 12 14 12 14 14 13 11 10 10 10 9 10 9 9 8 6 5 3 3 1 0 1 2 2 2 3 3 2 4 6 7 6 5 7 9 9 9 9 10 11 12 13 13 12 11 6 8 9 7 6 6 7 7 5 5 6 6 5 3 5 5 3 2 2 2
13 12 13 13 12 11 11 12 12 13 13 14 13 14 13 11 10 11 10 10 9 9 7 6 5 3 2 2 0 1 1 2 3 4 4 4 4 5 5 8 6 6 7 9 8 7 9 10 11 11 9 9 10 11 15 9 8 9 7 6 5 7 6 5 5 4 4 2 3 6 4 3 4 4
10 11 11 13 12 11 12 13 11 11 12 14 12 12 12 12 11 11 11 11 10 8 6 5 4 1 0 1 1 2 2 3 3 4 4 5 5 6 6 6 6 6 6 7 8 6 7 8 9 11 9 6 6 6 5 10 5 4 10 7 5 6 5 5 4 4 5 3 2 4 4 5 3 3
11 9 11 10 10 10 13 10 12 10 12 11 12 12 11 14 12 12 11 11 8 6 5 3 2 1 1 1 3 3 3 3 4 4 5 5 6 6 8 6 6 6 7 5 5 4 3 6 6 9 10 8 8 7 3 5 7 7 4 10 6 5 7 6 6 5 2 3 2 3 3 3 2 1
12 12 11 11 12 11 12 12 14 13 12 13 10 11 11 10 11 11 11 8 7 5 3 2 1 1 1 2 2 3 3 4 4 5 5 5 7 6 6 8 6 5 6 5 5 4 3 4 5 5 8 10 9 8 5 1 3 3 3 6 10 6 5 7 6 6 3 1 3 2 3 3 1 1
10 13 14 13 13 13 14 14 14 14 14 12 14 12 12 10 10 10 10 8 6 3 2 1 1 1 1 2 3 3 4 4 4 5 5 4 5 7 7 7 8 5 7 6 5 5 5 5 4 3 3 7 10 9 10 10 5 1 4 9 9 9 4 6 6 4 5 3 3 3 2 0 3 2
13 12 12 14 14 13 13 13 13 12 13 13 11 12 11 11 9 10 9 8 5 2 1 1 1 2 2 2 3 4 4 4 4 4 5 5 6 6 7 5 7 7 7 7 6 6 9 8 6 3 4 6 7 9 9 9 7 5 5 6 9 7 7 6 5 6 4 3 3 3 1 3 2 3
13 13 12 12 12 12 13 13 13 13 13 12 11 11 12 10 10 9 9 7 4 2 1 1 2 2 2 3 2 3 4 4 4 5 6 6 6 6 7 8 6 5 7 7 4 7 7 3 3 5 8 10 10 11 10 8 7 5 5 5 8 11 9 7 7 5 4 3 5 5 3 2 1 2
12 12 13 11 12 13 12 12 11 12 13 12 11 9 10 10 9 13 9 7 4 3 2 2 2 2 3 3 3 3 4 4 5 5 5 6 7 7 6 5 6 4 7 6 4 4 2 2 4 5 6 7 5 6 6 9 9 6 5 3 4 7 11 12 11 9 7 7 5 3 2 2 2 3
11 11 12 12 12 12 12 12 11 11 12 12 12 12 10 10 9 8 7 6 4 3 2 2 2 2 3 3 3 4 4 4 4 5 6 6 6 7 6 4 4 6 7 6 4 3 3 3 3 4 4 5 4 3 8 7 7 7 6 5 4 4 6 10 9 8 8 7 4 3 2 2 3 2
10 10 11 11 11 11 10 11 12 11 12 12 11 11 11 10 10 9 6 5 4 3 2 1 2 2 3 4 4 4 4 4 4 5 6 6 5 5 6 6 7 7 5 5 6 5 3 4 5 4 5 5 2 7 9 8 7 5 5 4 2 4 4 4 5 6 7 7 4 1 3 6 5 4
10 10 10 11 10 10 10 11 11 12 11 11 11 11 11 10 9 8 6 5 4 4 2 1 1 2 3 3 4 4 4 5 5 5 6 6 6 6 6 6 6 6 6 4 7 5 4 4 4 5 6 5 4 5 6 6 7 7 4 4 4 3 2 2 2 3 3 2 5 5 2 3 4 5
Wind_Direction
330 327 325 312 311 309 313 315 312 307 305 300 297 291 294 301 299 304 305 302 304 316 220 283 287 197 261 283 264 288 286 265 269 272 261 262 261 253 250 251 259 259 261 262 262 256 262 275 280 273 261 263 266 270 270 272 273 274 276 278 277 279 280 275 271 152 153 165 167 161 162 165 164 163
322 315 314 310 303 296 303 296 297 304 306 308 308 306 304 306 300 298 296 291 294 305 308 253 302 333 306 297 303 286 267 274 267 266 267 264 265 263 260 261 264 271 280 281 275 277 283 285 279 269 266 266 267 270 273 275 275 272 275 274 274 274 276 272 244 167 165 160 160 158 163 167 166 162
331 319 310 307 297 293 293 291 295 291 288 287 290 286 287 287 284 285 291 301 290 302 299 303 306 305 304 306 307 308 297 286 284 284 288 285 286 288 286 281 274 266 266 271 274 278 284 280 271 270 269 266 266 271 275 276 273 275 271 272 269 269 265 268 198 166 166 168 166 165 168 166 159 160
314 308 304 297 295 296 295 292 291 288 276 273 280 280 279 270 263 272 275 273 283 292 291 295 300 310 310 309 305 302 298 297 295 290 284 283 282 281 277 272 267 264 270 275 277 280 280 275 272 269 270 271 274 280 279 278 276 273 273 267 265 257 261 216 166 162 167 164 165 166 162 157 158 156
308 297 291 289 287 288 292 283 285 282 278 277 271 275 278 275 266 278 284 284 286 290 287 279 290 303 309 296 298 301 299 297 292 287 282 279 276 275 271 271 271 273 275 276 277 279 275 268 269 273 272 274 278 278 277 275 273 269 269 268 258 257 176 158 164 161 166 171 164 154 152 157 158 155
301 296 292 288 286 281 277 281 278 272 278 273 273 268 265 271 266 245 263 273 281 287 299 295 269 282 287 290 297 302 303 302 302 294 290 283 277 274 276 278 279 276 275 274 275 276 273 269 269 270 277 279 277 277 275 274 268 268 262 255 241 163 158 164 166 166 162 157 151 155 156 155 152 149
304 303 291 287 287 287 286 277 273 273 272 266 262 265 261 264 262 253 246 265 273 280 286 291 297 295 296 284 297 300 296 291 293 295 294 289 283 275 272 273 273 271 270 277 276 268 266 268 272 277 277 278 279 277 277 272 270 263 251 189 166 168 168 167 167 163 160 154 155 155 153 150 146 143
301 293 298 290 291 295 293 285 282 276 265 265 262 263 257 257 263 256 252 247 264 277 285 289 291 295 302 296 288 293 293 290 291 290 292 288 281 280 275 265 268 269 273 269 271 272 272 274 277 278 278 278 277 277 275 275 261 229 162 155 162 165 161 164 164 166 157 151 150 148 146 145 142 140
291 292 286 291 297 297 289 287 278 274 273 262 260 260 263 258 259 261 252 252 251 262 269 280 283 290 286 286 291 296 300 299 293 291 287 287 286 283 270 258 256 263 266 268 270 270 271 273 274 275 278 276 276 276 278 245 186 158 159 155 159 161 162 165 155 144 148 149 148 148 144 140 140 142
291 292 292 290 289 287 280 279 279 274 271 271 265 262 263 263 260 261 257 252 254 255 264 272 285 286 291 294 287 295 289 293 300 300 293 286 275 270 277 256 253 247 252 258 266 269 271 271 272 275 274 274 275 276 261 169 154 153 149 150 157 162 157 141 136 149 150 147 145 141 140 141 141 143
288 282 280 282 277 273 270 273 276 280 279 274 269 265 265 267 268 265 263 261 258 259 266 269 267 279 279 279 293 296 290 283 279 288 294 294 292 269 247 274 264 244 247 257 262 259 259 267 268 269 275 273 274 278 239 173 157 141 137 148 151 141 145 149 150 147 144 141 138 136 137 139 139 141
278 275 272 269 269 265 267 268 273 273 277 278 280 272 257 264 271 272 271 267 263 264 265 264 274 262 278 283 272 282 287 288 282 270 280 288 296 295 285 259 266 262 234 245 258 263 263 265 268 271 271 273 269 272 199 161 138 140 148 150 149 149 148 145 142 139 138 134 133 134 134 137 140 142
271 273 267 263 263 264 264 264 266 268 268 276 282 282 277 267 265 273 275 274 271 266 264 273 268 276 277 275 284 288 286 287 289 294 290 285 284 286 285 282 250 231 246 253 255 257 241 254 263 257 264 263 268 226 151 142 140 153 156 151 150 146 142 139 137 135 133 133 132 133 135 138 140 139
275 270 276 276 270 270 272 273 273 273 272 267 262 271 280 279 276 273 276 275 272 273 274 272 279 280 277 279 279 281 280 283 284 285 285 285 286 286 280 278 265 209 220 246 254 256 229 222 258 251 249 260 220 155 140 149 160 163 153 147 143 140 139 137 135 134 134 133 133 133 133 133 133 135
301 296 282 275 278 278 277 274 272 273 273 273 273 270 268 265 266 276 275 274 276 277 270 273 274 273 277 278 281 279 284 281 282 281 281 282 287 287 294 294 291 183 200 229 254 261 209 189 238 244 234 205 163 145 147 161 163 154 146 143 142 140 139 136 134 134 132 132 131 130 129 130 133 135
297 298 298 294 286 273 271 280 285 283 282 281 277 275 274 272 267 259 261 273 277 272 277 275 268 274 272 280 282 283 283 285 284 280 280 280 282 285 282 281 284 279 166 215 240 258 141 192 219 205 240 180 148 147 156 162 157 151 147 142 140 137 135 135 133 130 129 129 128 128 130 132 134 136
293 295 299 302 299 294 287 287 289 290 291 288 283 279 278 275 272 276 271 261 258 268 265 267 270 262 276 277 277 279 283 284 286 289 283 278 277 276 277 275 278 273 184 201 235 240 209 156 190 183 175 175 144 151 159 160 152 145 141 139 137 135 133 131 129 128 128 130 131 132 133 135 137 139
294 294 297 301 302 306 307 296 286 287 291 294 293 291 285 280 274 271 267 263 260 256 259 263 266 269 268 273 275 275 275 278 278 281 280 280 279 278 275 276 276 271 161 206 220 227 207 210 145 155 126 152 149 143 161 155 148 142 139 136 134 132 130 129 129 129 129 130 132 134 135 136 138 141
290 293 293 293 295 300 304 305 303 300 299 297 296 295 294 290 287 282 279 271 267 264 259 261 263 270 270 270 271 272 270 266 265 266 272 276 279 278 277 273 265 255 197 203 189 226 145 170 121 81 354 138 131 128 156 148 143 139 137 134 131 131 130 130 130 131 132 133 133 133 134 137 138 140
294 293 294 297 299 300 300 305 304 301 300 296 295 296 295 296 295 289 282 278 272 270 273 273 272 271 272 273 273 273 274 272 271 270 271 272 270 273 271 272 271 245 205 195 192 148 150 163 130 92 5 128 125 133 137 145 140 137 133 131 131 131 132 132 132 133 133 133 132 133 136 138 140 140
306 301 299 297 298 300 299 304 306 304 306 300 298 294 295 295 295 295 295 289 284 282 282 281 280 282 284 286 287 287 283 279 280 284 283 277 277 277 276 275 272 253 194 201 188 141 139 157 139 100 26 29 85 111 131 136 139 134 132 132 133 133 133 133 133 133 132 131 133 135 137 137 137 138
305 300 300 299 297 298 298 304 305 309 310 303 300 298 297 298 296 294 298 297 291 289 284 278 274 271 273 278 282 282 282 280 279 274 272 275 279 274 273 274 272 269 178 192 142 135 149 140 131 107 82 59 12 26 92 119 130 129 128 129 131 133 134 134 133 131 130 130 133 135 136 138 131 115
309 306 306 305 304 304 305 310 312 312 313 309 306 305 300 294 292 294 298 298 299 300 298 292 286 278 273 276 276 274 273 268 265 260 260 266 264 263 268 266 273 262 202 155 155 128 155 140 169 137 119 48 348 9 32 73 87 98 109 121 127 133 133 132 129 128 129 130 134 134 134 131 121 116
313 313 312 313 315 318 317 314 312 309 309 306 300 296 292 293 291 296 295 295 293 291 292 291 289 287 286 282 276 271 268 265 259 258 256 258 260 257 263 264 250 243 202 174 168 137 148 157 152 339 79 140 134 358 51 53 63 74 96 111 115 130 129 126 125 126 129 131 132 132 128 125 120 106
315 314 315 313 314 313 312 311 310 309 307 306 302 297 291 290 293 294 293 292 287 289 289 288 288 287 286 284 281 276 272 268 264 261 258 259 257 253 260 263 258 246 179 178 164 136 152 168 143 112 76 47 109 115 69 78 53 58 71 95 107 106 101 104 107 117 129 130 129 125 121 122 127 124
306 306 305 305 307 310 311 310 309 308 308 308 305 297 298 295 298 295 288 287 289 287 288 287 285 284 283 284 285 280 277 274 276 284 281 280 278 270 266 262 257 221 165 171 168 150 135 162 157 134 124 118 69 109 117 66 48 66 70 71 86 102 102 104 104 101 91 92 105 121 122 122 123 125
304 302 300 298 303 309 311 311 310 310 309 309 302 302 303 298 293 290 291 290 289 284 280 282 281 283 284 287 288 286 286 284 289 290 295 297 299 291 290 275 252 216 166 163 168 158 151 145 156 146 140 132 126 115 110 123 119 102 85 82 90 96 79 75 98 106 102 99 109 122 120 122 122 123
300 302 304 306 310 312 311 310 310 310 309 304 303 298 295 294 294 296 294 289 281 282 280 278 278 281 285 287 289 293 306 292 304 306 310 323 329 335 344 353 12 114 144 153 150 153 144 139 139 143 144 144 143 145 130 57 105 122 119 103 84 92 88 92 102 97 95 90 67 65 50 55 51 61
301 306 309 310 311 311 310 310 310 308 303 300 298 296 294 295 296 294 288 284 281 274 273 270 275 282 288 298 298 309 288 284 290 291 316 346 37 37 66 50 37 35 73 111 125 127 137 140 137 133 130 136 128 128 132 142 142 140 136 129 113 112 104 106 111 113 107 93 92 86 74 88 86 86
311 312 313 313 312 310 308 308 304 303 299 295 295 296 297 299 295 291 289 283 283 281 280 280 285 290 305 310 291 274 270 277 277 288 276 282 13 13 61 71 40 35 33 43 75 106 118 126 133 134 124 114 126 133 136 131 128 129 131 122 112 85 76 116 117 112 112 106 100 91 80 83 98 96
311 314 315 311 310 306 305 304 301 294 293 294 297 301 301 299 296 295 291 287 284 283 283 288 291 302 306 304 300 270 274 283 296 308 307 26 48 52 61 81 71 55 37 42 46 60 90 104 121 134 126 109 89 109 130 126 129 137 130 134 145 143 155 127 115 112 99 102 93 90 79 82 88 94
313 311 309 309 306 300 300 301 298 300 298 299 304 302 302 298 294 290 285 281 278 276 284 290 300 300 300 282 265 284 282 318 336 348 355 26 91 58 89 85 52 73 67 53 51 47 56 58 71 61 94 130 129 116 97 118 133 135 130 130 93 86 124 137 125 113 110 106 97 89 80 80 79 73
316 313 312 313 310 313 316 315 315 315 317 315 310 303 299 298 297 296 297 296 294 295 301 297 294 293 273 271 261 275 336 355 5 12 46 25 56 59 65 91 95 101 92 64 70 60 65 68 58 71 73 58 70 115 129 117 112 129 136 129 117 116 121 114 122 122 115 103 105 111 87 42 34 37
317 313 308 304 310 309 306 314 318 317 318 316 315 314 306 299 300 305 309 303 301 306 299 291 287 274 262 251 260 338 38 31 41 50 59 35 42 94 102 97 83 82 94 99 94 96 90 86 86 77 76 73 63 47 44 121 130 127 116 119 122 121 116 114 111 117 118 127 139 119 91 47 3 359
322 317 313 312 308 307 314 317 312 311 314 318 315 311 310 311 313 314 312 314 315 307 294 286 271 270 253 247 168 83 76 59 51 47 49 55 60 72 90 106 102 104 105 102 104 110 112 111 106 97 87 91 76 49 46 47 123 118 106 95 111 122 121 116 115 111 110 91 102 112 102 84 65 24
311 310 306 303 304 316 320 313 308 316 317 313 308 309 312 317 318 318 317 318 316 302 293 284 285 278 334 71 62 72 68 82 72 70 70 70 78 80 74 82 97 98 96 103 113 118 121 125 124 119 115 100 95 83 24 20 40 134 130 123 113 112 111 111 103 102 99 85 92 128 120 135 120 29
308 303 299 296 316 320 310 312 318 316 313 311 312 315 315 316 318 317 314 315 304 296 288 301 322 9 56 67 75 68 77 82 91 80 84 82 83 92 98 87 82 92 93 77 82 93 100 117 112 120 120 110 106 103 80 328 57 70 114 125 116 119 131 124 117 98 63 102 92 89 125 118 144 240
305 306 312 322 318 314 322 323 318 314 315 317 312 313 314 311 313 313 315 310 302 306 324 353 17 43 43 76 91 92 74 79 86 92 95 105 110 103 105 111 99 86 88 78 59 54 43 87 111 127 130 127 121 130 121 358 26 36 88 130 132 139 130 125 123 129 124 47 110 107 90 103 177 261
328 330 324 321 325 328 322 318 314 313 315 317 320 317 316 314 313 315 315 310 307 324 353 13 19 35 69 58 65 81 103 104 102 101 105 95 102 113 113 112 106 103 100 85 61 46 45 53 42 40 83 142 153 166 148 139 126 100 120 132 128 123 144 135 131 132 138 121 86 66 62 278 242 290
329 327 324 324 322 320 317 314 312 314 320 320 315 316 315 314 314 314 314 315 316 338 10 25 51 67 52 59 76 83 79 86 99 102 100 103 98 106 109 110 112 117 102 92 75 27 33 24 10 2 67 83 77 90 95 93 93 76 76 119 133 137 147 131 138 146 105 112 114 79 26 355 41 338
331 327 325 323 318 317 317 313 312 317 319 318 316 315 316 313 315 313 310 311 321 346 12 21 33 49 60 72 73 95 106 96 92 93 98 99 99 102 115 115 106 107 107 87 61 52 30 352 349 91 106 105 112 110 95 85 89 94 93 83 102 114 125 130 141 137 138 149 102 111 100 102 97 18
327 323 320 320 319 317 314 311 313 320 320 318 315 314 315 317 315 319 322 334 345 355 27 27 40 56 67 66 73 74 98 108 109 103 105 111 110 107 113 105 107 101 104 100 72 71 336 341 23 78 90 103 80 85 108 133 132 125 108 64 12 93 111 122 124 122 133 132 114 100 83 38 37 39
325 321 319 317 313 312 312 314 317 320 318 317 318 319 316 317 319 323 326 326 334 347 3 31 43 64 68 71 66 74 87 94 107 110 108 109 117 121 111 91 78 69 79 84 84 56 45 33 30 41 48 56 51 92 129 136 126 126 123 109 93 48 35 42 59 102 131 157 172 164 160 158 129 135
324 320 316 318 316 314 311 318 321 322 321 318 317 319 320 319 322 325 326 325 326 341 356 27 44 63 77 82 85 83 84 94 111 117 116 113 110 109 105 93 91 95 92 92 90 70 49 41 24 26 57 34 15 103 125 124 127 129 122 116 42 58 42 359 357 19 24 26 23 267 224 196 210 205
323 321 319 320 316 314 316 320 323 323 322 320 320 319 320 321 323 325 326 328 329 334 3 23 39 59 79 95 105 105 106 109 106 101 109 109 105 98 85 99 102 99 89 84 108 91 65 56 36 45 58 37 39 89 107 117 129 132 115 105 96 64 37 24 32 19 7 339 350 11 332 287 262 267